Location: Burtsch�tz
(51.0528°N, 12.1764°E)
Time: 07:43:30
(UTC+00:00)

CRYOSAT 2 - Pass Details

Date: 29 October 2020
Orbit: 715 x 724 km, 92.0° (Epoch: 01 December)

Event Time Altitude Azimuth Distance (km) Brightness Sun altitude
Rises 17:41:54 0° 7° (N) 3,136 7.6 -18.0°
Reaches altitude 10° 17:44:13 10° 10° (N) 2,210 6.8 -18.4°
Maximum altitude 17:49:04 62° 92° (E) 805 4.3 -19.1°
Drops below altitude 10° 17:53:52 10° 173° (S) 2,192 6.8 -19.9°
Sets 17:56:10 0° 177° (S) 3,108 7.6 -20.3°
